Wind_Speed
15 14 13 13 12 11 11 11 11 9 8 8 7 6 7 6 6 4 4 5 6 5 6 5 5 5 4 3 2 3 5 6 5 4 7 7 7 7 6 5 7 8 8 8 9 10 10 11 12 13 13 13 13 12 12 12 12 11 11 10 9 9 9 9 9 10 10 10 10 10 10 10 10 9 9 9 9 8 8 8 8 8 7 7 7
15 14 14 13 12 12 12 11 11 10 9 9 8 7 7 6 5 5 6 6 5 4 4 4 4 5 5 4 4 4 5 6 5 5 6 7 6 8 7 6 6 7 7 7 8 8 9 11 11 12 13 13 13 13 13 13 13 13 12 11 11 10 10 9 9 9 10 11 11 11 11 11 11 10 10 10 10 9 9 9 9 9 8 8 8
16 15 15 14 13 14 12 11 11 11 10 9 9 9 8 7 6 6 6 5 3 2 2 2 3 4 5 5 5 6 6 7 6 6 6 6 6 7 8 7 6 6 6 6 6 7 7 9 10 11 12 13 13 14 14 13 13 13 12 12 12 11 11 10 10 10 10 10 11 11 11 11 12 11 11 11 11 10 11 10 10 9 9 9 9
17 15 15 15 15 15 14 12 12 11 10 10 9 9 8 7 7 7 6 5 2 2 2 3 3 3 2 4 5 7 8 7 7 7 7 7 6 7 7 7 6 6 6 5 5 5 6 7 9 10 11 12 13 13 14 14 13 13 13 13 13 12 12 12 12 11 11 11 11 11 11 11 12 11 11 12 12 11 12 11 11 11 10 10 10
17 16 15 16 16 15 14 13 12 11 10 10 9 8 8 8 8 8 7 5 3 2 2 4 2 4 2 2 4 8 9 8 9 8 7 7 7 7 7 7 7 6 6 5 5 5 5 5 6 8 10 11 12 13 13 13 13 13 13 14 14 14 14 13 13 13 13 13 13 12 12 12 12 12 12 12 12 12 12 12 12 12 11 11 11
17 16 16 16 16 15 14 14 12 11 11 10 10 9 9 9 8 8 6 4 3 3 3 4 1 4 4 4 4 7 10 10 9 8 7 7 7 7 8 8 7 7 6 6 5 5 5 5 5 5 7 9 10 12 12 11 12 12 13 14 14 15 15 15 15 14 15 15 14 14 14 14 13 13 13 13 13 13 13 12 12 12 12 12 12
17 17 17 17 17 16 15 14 12 12 11 11 10 10 10 9 8 7 5 4 3 4 6 5 2 2 4 6 6 7 9 9 9 8 7 7 7 7 8 8 8 7 6 6 6 6 5 5 4 4 5 6 8 10 10 10 11 11 12 13 13 14 15 16 16 16 16 15 15 15 15 15 15 15 15 15 15 14 14 14 13 13 13 13 13
18 18 18 18 17 17 16 14 12 11 11 10 11 10 9 8 7 6 4 4 4 4 5 4 3 2 4 7 6 6 7 7 8 9 8 7 7 7 7 8 8 7 7 6 6 6 5 5 5 6 6 6 6 7 8 8 9 9 10 11 11 12 13 15 16 16 16 16 16 16 15 15 15 15 16 16 15 15 15 15 15 15 15 15 15
20 19 19 18 18 17 16 14 12 11 11 11 11 9 8 7 7 6 5 5 5 3 1 1 3 3 5 9 6 6 6 6 8 9 8 7 7 7 7 8 9 9 8 7 6 6 5 5 6 6 6 6 7 7 7 7 7 8 8 9 10 11 12 13 14 15 16 16 16 16 16 16 16 16 16 16 16 16 16 16 16 17 16 16 16
21 20 19 19 18 17 16 14 12 11 11 11 10 9 9 9 8 6 6 5 5 4 1 1 3 2 6 10 7 6 6 6 8 7 6 6 6 7 8 9 9 9 9 7 6 6 6 5 5 6 6 6 8 7 7 6 7 7 7 8 8 9 10 11 12 13 14 15 15 15 15 16 17 17 17 17 17 18 18 17 17 18 17 17 17
23 22 21 20 19 18 17 15 13 12 12 12 10 9 10 10 9 7 7 6 5 5 2 2 3 4 6 9 8 7 7 6 6 5 6 5 4 6 8 8 8 8 9 7 7 6 5 5 5 6 5 6 6 7 7 7 7 7 7 7 8 8 8 9 10 11 12 12 13 14 15 15 16 17 17 17 18 19 18 17 18 18 18 18 17
24 24 23 21 20 19 18 16 14 13 13 12 11 11 11 11 11 9 8 8 7 6 5 4 4 5 7 9 9 7 6 8 6 5 6 5 4 6 7 7 7 8 9 8 7 6 4 3 4 4 4 4 4 5 5 6 6 7 7 7 7 7 7 8 8 9 9 10 11 12 14 14 14 15 16 17 18 18 17 17 18 19 18 18 18
25 25 24 22 20 19 18 17 15 14 14 12 12 11 11 11 10 9 9 8 7 8 7 5 4 6 6 7 9 7 6 8 7 5 6 7 5 7 8 9 8 9 9 8 7 6 4 3 3 4 4 4 4 4 4 4 5 5 5 5 5 5 6 6 6 6 7 8 9 11 12 12 13 14 14 15 16 17 17 17 18 19 18 18 18
24 25 24 23 21 19 19 18 16 15 14 12 12 11 11 11 11 10 10 8 7 7 7 5 4 5 5 4 4 4 4 6 7 6 6 8 8 8 10 10 9 9 10 9 8 6 4 3 2 3 4 4 3 3 3 3 3 3 4 4 4 4 4 4 4 4 5 6 7 8 9 10 11 12 13 14 15 16 16 16 16 16 15 16 17
24 24 24 23 21 20 19 18 17 16 15 14 13 13 12 12 11 10 10 8 7 7 6 5 4 3 4 2 1 1 0 2 6 6 6 9 10 10 11 10 9 9 10 9 8 7 4 2 2 3 4 3 2 1 2 2 1 1 2 2 2 2 3 3 3 3 4 4 5 5 5 6 8 9 9 11 12 13 14 14 14 14 14 15 15
24 24 24 23 21 20 19 19 18 17 16 16 16 15 14 12 11 10 10 9 8 7 7 5 4 4 3 2 1 2 0 2 3 5 8 11 12 12 12 11 11 11 11 11 9 7 5 3 3 3 4 3 2 1 1 1 1 2 2 1 1 2 1 1 2 2 2 2 2 3 4 4 5 6 6 7 9 9 10 11 11 12 12 13 14
26 26 25 24 22 21 19 19 19 18 17 18 18 17 15 13 12 11 11 11 8 8 7 6 5 6 5 2 2 1 2 2 1 2 7 13 15 14 14 13 12 12 12 12 11 9 5 3 2 3 3 3 2 1 1 0 0 1 2 4 4 4 4 4 4 4 4 4 4 3 3 3 4 5 5 6 7 8 8 9 9 9 9 10 10
27 27 26 24 23 21 20 20 20 19 19 20 19 17 16 14 13 13 13 11 9 9 9 7 5 6 8 6 3 3 4 3 2 0 3 9 13 14 15 15 14 13 13 13 13 11 7 4 2 2 2 3 1 1 0 1 3 5 5 5 5 4 4 4 5 5 5 5 5 5 5 5 4 4 5 5 6 7 8 9 9 9 9 10 9
27 28 27 26 23 22 21 21 22 20 20 22 21 18 18 16 14 14 14 12 11 12 11 9 6 6 7 7 6 5 6 7 4 2 2 4 8 10 11 13 13 13 13 14 14 12 9 7 4 3 2 2 1 1 1 2 4 5 3 4 5 4 3 3 4 6 6 6 6 6 6 6 6 6 6 6 6 6 7 7 7 8 8 8 8
27 28 28 26 24 24 23 22 23 21 22 24 23 20 19 17 16 16 15 14 13 13 13 11 8 7 6 6 5 4 7 8 7 6 4 2 4 5 6 10 13 13 14 16 14 12 10 8 6 4 3 3 2 1 1 2 3 3 2 2 4 4 3 2 4 5 7 8 8 7 6 6 7 7 7 7 7 8 8 8 8 8 8 7 7
27 28 28 27 26 25 24 24 24 22 24 26 24 22 20 19 19 18 17 16 14 14 15 14 12 10 9 7 6 6 5 6 7 7 4 4 3 2 5 8 11 14 17 17 15 13 11 9 7 6 5 4 4 3 2 2 3 3 2 1 1 3 3 3 4 5 6 8 9 8 7 6 7 7 8 8 8 8 8 8 9 9 9 9 9
28 29 28 27 26 26 25 25 25 24 25 27 25 23 22 22 21 21 19 17 16 15 16 17 14 12 11 10 9 7 5 4 6 6 4 4 3 2 6 8 8 13 18 19 18 16 13 11 9 8 7 7 6 6 5 4 4 3 3 3 3 3 3 4 4 5 6 8 9 8 7 7 8 8 8 9 9 9 9 9 9 10 10 11 11
29 29 29 28 27 27 26 26 26 26 27 28 26 24 23 23 23 22 20 19 18 16 16 17 16 14 13 12 11 9 6 4 5 7 5 4 4 3 5 7 9 12 16 19 19 17 16 14 12 10 9 9 8 8 8 7 7 6 6 6 6 5 5 5 5 5 6 7 9 8 7 8 9 10 10 10 10 10 10 10 11 11 11 12 13
31 31 31 29 28 28 28 28 27 28 29 29 26 24 24 24 23 23 22 21 19 17 17 18 17 16 15 14 13 11 9 6 6 8 6 6 8 6 4 5 6 8 11 16 18 18 18 15 14 13 11 11 11 11 10 10 10 9 8 8 8 8 7 7 7 7 7 7 8 8 8 8 10 11 12 12 11 11 11 11 12 12 13 14 14
33 34 33 31 30 29 29 30 30 29 30 29 27 25 25 24 24 23 23 23 22 19 19 19 18 18 16 15 14 12 11 8 7 8 7 8 10 7 4 3 3 4 6 11 14 16 18 17 16 14 14 13 13 13 13 13 13 12 11 11 11 10 9 8 8 9 9 9 9 9 9 9 10 11 12 13 13 13 13 13 14 14 14 15 15
37 36 34 32 31 31 31 31 31 31 31 29 27 26 26 25 25 24 24 24 23 21 20 20 19 18 17 16 15 13 12 9 8 8 9 10 11 10 6 2 1 3 3 5 8 10 13 15 17 17 16 16 16 16 16 16 15 14 14 13 13 12 11 10 10 10 10 11 11 11 11 11 11 12 13 14 15 15 16 16 15 15 15 16 16
38 37 35 33 32 31 31 32 31 31 31 30 29 28 27 26 26 25 24 25 24 23 22 21 20 19 19 17 15 14 12 10 9 9 10 9 9 11 10 5 1 1 1 1 4 6 8 10 11 13 12 11 12 14 15 16 16 16 16 15 14 13 12 12 11 12 12 12 12 12 13 13 13 14 14 15 15 16 17 17 16 16 16 16 16
38 36 35 34 33 32 32 32 32 32 32 31 31 30 29 28 27 26 25 25 25 25 23 21 21 20 19 18 16 14 12 11 10 10 11 10 8 10 11 9 5 1 2 2 2 5 8 8 6 6 5 3 4 6 8 12 14 15 17 17 16 14 13 13 13 14 14 14 14 14 14 14 15 15 15 15 16 16 16 16 15 15 15 16 16
37 36 35 35 34 33 33 33 33 32 32 32 32 32 31 30 29 28 27 26 25 25 24 22 21 20 19 19 17 15 12 11 10 10 10 11 10 10 10 10 8 5 2 1 3 5 7 8 7 5 3 2 2 3 4 5 7 10 13 15 15 15 14 14 15 15 15 15 15 16 16 16 16 16 16 16 16 16 16 15 14 14 14 15 15
38 37 36 36 36 35 34 34 34 33 33 33 34 33 32 32 31 30 28 27 26 25 25 23 21 20 20 20 18 15 13 12 11 10 10 10 11 11 10 9 8 7 6 4 4 6 8 9 7 5 3 3 2 3 4 4 4 6 8 11 14 15 15 15 15 16 16 16 17 17 18 18 18 18 17 17 16 16 16 15 15 15 15 15 15
38 37 36 37 37 36 36 35 35 35 34 34 34 34 34 33 33 32 30 29 28 26 25 24 23 21 20 21 19 17 14 13 13 12 11 11 10 10 10 10 9 9 9 7 3 5 9 9 7 5 4 5 5 6 6 5 6 7 9 10 12 13 14 15 15 16 16 16 16 17 18 18 18 18 18 17 16 16 16 16 16 17 17 17 16
38 38 37 38 38 38 38 37 37 37 36 36 36 35 35 35 35 33 31 30 29 28 26 26 25 23 22 22 21 19 16 15 15 14 13 13 12 11 11 11 10 9 10 9 7 7 9 8 6 6 6 7 7 8 8 8 8 8 10 11 11 11 12 12 13 15 15 16 16 16 17 17 18 18 18 17 17 16 16 16 16 16 17 17 17
38 38 38 38 38 39 39 39 38 38 38 38 37 36 36 36 35 34 32 32 31 30 28 27 27 26 24 23 22 20 18 17 17 15 14 13 13 13 12 11 11 10 9 10 9 8 8 9 8 8 7 7 8 8 8 9 9 9 10 11 11 12 12 14 15 17 17 17 17 16 17 18 19 19 18 17 17 17 17 17 16 16 16 17 17
38 39 39 39 38 39 40 40 40 39 39 39 38 37 37 37 35 34 33 33 32 32 30 29 29 27 26 25 24 22 20 19 18 17 15 15 14 14 13 12 12 11 10 11 11 9 9 10 9 9 8 8 9 9 9 10 10 11 11 11 12 14 15 17 18 18 18 17 16 17 18 19 19 18 17 17 17 17 17 17 17 17 17 18 18
39 39 39 39 39 39 40 40 40 40 39 39 39 38 38 38 36 35 34 34 34 33 32 31 30 28 27 27 25 23 22 20 19 18 17 16 16 15 15 14 14 13 11 11 12 11 11 12 11 11 11 10 10 10 10 11 12 12 13 13 14 15 17 18 18 18 17 16 16 17 17 18 17 16 15 16 16 16 17 17 19 20 20 20 20
38 39 39 38 39 39 40 41 41 40 40 39 39 39 39 39 37 36 35 35 35 35 34 33 31 30 29 29 27 25 23 22 21 19 17 17 18 17 16 16 15 14 13 12 13 13 13 13 13 13 12 12 12 12 12 12 13 13 14 15 15 16 17 17 17 17 16 15 16 17 18 18 16 15 14 14 15 16 18 19 19 19 20 20 21
38 38 38 38 39 40 41 42 41 41 40 40 40 40 40 39 38 36 36 37 37 35 35 34 33 32 31 31 29 26 25 24 23 21 19 18 18 19 18 17 16 15 14 14 15 15 15 16 16 15 14 13 13 13 13 13 13 14 14 15 16 16 17 18 17 16 15 16 17 18 19 18 16 15 15 15 16 17 17 17 16 17 17 18 19
37 37 38 39 40 41 42 42 41 41 40 40 41 41 40 39 37 36 36 37 37 36 35 35 35 34 33 32 30 27 26 26 25 23 21 20 20 20 20 18 17 16 16 16 16 17 17 18 18 17 16 15 15 14 14 13 13 14 15 16 16 16 17 19 18 16 15 17 19 20 20 19 17 17 16 16 16 16 16 16 16 18 18 18 18
37 37 38 40 41 42 42 42 41 41 40 41 41 41 40 38 37 36 37 37 37 36 36 36 35 34 33 32 31 29 28 27 26 24 23 22 22 21 21 19 18 17 17 17 18 18 18 18 18 18 18 16 16 15 15 14 13 14 15 17 19 18 17 17 17 16 16 17 19 20 20 20 19 17 17 17 17 17 17 17 17 18 18 18 18
38 39 39 40 40 41 41 42 41 40 40 41 42 41 39 38 37 37 37 38 37 36 36 36 35 35 34 33 32 31 30 29 27 25 24 24 23 23 22 20 19 18 19 19 20 19 19 19 19 19 18 17 17 16 16 14 14 16 16 17 19 19 17 16 16 16 17 18 19 19 18 16 16 16 17 18 18 17 15 15 16 16 16 16 17
39 39 40 39 39 39 40 41 41 40 41 43 43 42 40 38 37 37 37 38 37 36 36 35 35 35 35 34 33 31 30 29 27 25 25 25 24 24 24 22 20 20 21 21 22 21 20 19 19 19 17 17 17 17 16 16 17 18 17 15 17 18 17 17 18 18 18 18 18 16 15 14 14 16 18 18 16 14 13 14 15 15 15 16 17
39 39 39 38 39 39 40 40 40 41 42 44 44 43 41 40 38 37 37 37 37 37 36 35 35 36 36 35 33 31 30 29 27 26 26 27 26 26 25 23 21 22 22 23 23 23 21 20 21 20 16 17 19 19 18 19 18 17 16 15 16 16 15 16 19 20 18 14 12 14 16 16 16 17 18 17 15 13 13 15 16 17 18 18 17
39 39 38 38 39 40 40 40 41 42 44 45 44 42 42 40 39 38 38 38 38 38 37 36 36 36 36 36 33 31 30 29 28 28 28 28 28 27 25 24 23 23 23 23 23 23 22 21 21 19 17 19 21 19 19 19 18 16 16 16 15 15 14 13 15 19 17 10 7 12 18 20 19 18 17 16 15 14 14 15 16 17 18 18 18
40 39 39 39 40 40 41 41 42 43 45 45 42 41 41 41 40 39 39 38 38 38 39 39 38 37 36 35 33 31 30 30 30 29 29 29 29 28 27 25 25 25 24 24 24 24 24 23 22 20 20 20 21 20 18 18 17 15 15 14 14 14 14 14 15 18 18 14 10 13 19 21 19 18 17 16 15 14 15 16 16 16 16 17 18
39 39 39 39 40 41 41 41 43 44 44 42 41 41 41 41 42 41 40 39 39 39 40 39 38 37 36 34 32 30 30 31 30 30 30 29 29 28 27 26 26 26 25 24 25 26 25 24 23 22 21 19 19 19 16 15 15 14 13 14 14 14 14 16 18 20 20 18 17 16 19 21 18 16 17 17 15 14 15 15 15 16 18 19 22
39 40 40 40 40 41 42 43 43 44 42 40 40 41 41 41 42 42 42 41 39 40 40 39 39 38 35 33 33 32 31 31 31 31 31 30 29 28 27 27 27 27 25 25 26 27 27 26 25 23 20 18 18 16 13 12 13 14 14 15 14 14 15 16 18 20 20 20 18 14 15 17 17 16 18 18 16 15 16 17 19 21 23 25 26
41 41 40 40 41 42 43 42 42 41 41 40 40 41 42 42 41 41 43 42 40 38 37 37 38 37 34 34 35 34 32 31 31 31 31 30 29 28 27 28 28 27 26 25 25 25 27 27 25 22 19 16 15 12 10 11 13 13 13 13 13 14 15 16 18 20 20 19 14 8 10 14 16 16 18 18 18 20 22 22 23 25 25 24 21
40 39 39 41 42 42 42 41 41 40 40 39 40 41 42 41 40 41 42 42 40 37 35 36 35 32 31 33 34 34 32 31 30 30 31 30 29 28 28 28 27 26 25 24 23 24 25 24 22 20 16 13 11 10 11 11 12 11 9 10 12 13 14 15 17 19 19 16 13 9 11 13 14 14 18 20 21 25 27 25 23 21 19 17 15
38 39 40 40 41 41 41 41 41 41 39 39 40 41 41 40 39 40 41 42 40 35 33 31 28 27 30 32 33 33 32 31 30 29 29 29 28 28 28 26 24 24 23 22 21 20 17 15 15 15 12 11 10 11 11 10 10 9 8 10 12 13 13 12 12 15 16 15 14 10 10 12 12 14 19 22 22 24 25 24 20 17 15 16 17
39 40 40 39 39 40 41 42 42 40 39 39 40 41 40 39 39 39 41 42 37 30 28 27 24 26 30 31 32 33 32 30 29 28 27 28 28 29 27 23 22 23 22 21 21 17 11 10 12 11 10 10 10 10 9 9 9 8 10 12 13 13 14 12 10 12 13 13 13 8 7 11 14 15 19 20 19 21 21 20 19 19 19 19 19
39 39 38 37 37 39 39 40 40 40 39 39 40 40 38 37 38 39 41 40 31 26 29 28 25 29 31 30 31 32 31 29 28 27 27 28 29 29 25 22 22 22 20 18 18 17 16 14 13 11 10 11 10 9 9 10 11 12 14 15 13 12 13 11 10 9 7 8 11 10 9 12 15 16 17 15 11 14 18 20 21 23 23 22 22
Wind_Direction
222 223 227 231 233 235 242 248 248 241 237 235 232 233 232 237 246 254 276 284 280 271 264 263 255 256 263 260 263 268 257 249 251 235 212 208 213 217 224 218 209 214 214 218 222 215 216 217 218 216 208 206 205 204 206 206 206 208 208 208 209 211 210 212 213 214 214 216 218 218 218 219 217 220 223 225 228 229 232 236 238 240 241 242 248
222 224 229 233 234 236 240 244 242 238 238 237 236 243 244 247 258 272 292 292 279 267 262 263 257 259 265 262 264 263 249 241 244 239 217 209 211 210 215 220 211 212 212 211 214 212 213 219 224 221 213 211 210 208 209 211 211 213 214 211 211 213 214 216 217 220 222 224 224 222 224 226 224 224 227 230 234 236 237 240 243 245 247 248 251
224 228 231 234 237 238 241 244 240 235 241 244 241 247 250 254 267 282 289 280 264 274 284 284 265 260 267 257 248 244 237 233 232 232 225 214 209 203 206 216 214 214 214 208 207 208 211 216 223 224 220 217 215 213 213 215 217 220 222 221 218 217 216 218 221 224 226 232 233 230 230 231 231 231 232 235 236 238 240 241 243 245 248 250 253
225 231 235 236 238 240 242 245 242 237 244 248 244 249 254 259 269 274 270 260 272 295 304 306 266 227 250 242 223 222 223 231 235 232 231 226 212 194 195 207 210 213 216 209 202 201 209 213 218 223 225 224 220 218 218 217 221 225 228 230 229 226 223 221 222 225 225 231 237 237 238 237 238 239 238 240 240 241 242 243 244 245 247 249 252
226 232 237 240 240 240 242 243 243 244 249 250 247 253 256 261 267 263 257 261 288 279 293 318 260 175 176 213 227 225 216 222 234 227 223 227 217 190 183 194 201 206 209 207 200 196 202 205 211 218 223 227 226 225 222 219 222 227 230 233 235 235 233 229 228 228 226 229 233 235 238 240 241 242 243 245 245 245 246 247 248 249 249 250 252
227 233 238 241 241 240 241 241 244 248 249 248 248 251 254 262 262 256 258 267 286 275 284 308 235 170 185 202 223 228 219 220 224 213 206 215 212 192 183 186 194 202 201 199 198 199 203 201 202 211 218 223 228 231 228 222 225 229 233 234 236 238 238 237 237 235 233 234 235 237 238 239 241 243 245 246 247 248 249 250 252 253 253 254 255
228 234 239 240 237 239 238 238 245 247 246 246 247 248 251 258 255 250 260 257 270 288 286 288 255 199 206 206 212 219 219 222 212 197 195 201 199 192 189 188 190 196 199 200 200 201 205 202 202 210 217 219 227 235 234 229 229 231 235 236 237 240 240 241 241 241 241 241 242 244 244 245 245 247 247 247 247 248 250 252 254 256 256 257 258
229 233 236 235 233 236 236 236 242 243 243 244 245 249 252 249 242 240 239 245 267 285 281 263 229 252 213 197 206 209 210 212 198 189 193 198 196 194 193 192 190 193 199 203 206 207 204 203 209 218 225 228 229 236 240 234 229 233 239 239 238 240 242 242 243 245 247 248 250 251 253 255 255 255 254 254 254 253 253 254 254 255 256 257 258
229 231 231 230 231 233 232 234 237 238 239 242 246 251 245 230 223 222 222 249 259 238 252 164 190 262 210 185 189 195 200 201 190 189 198 200 200 201 198 193 192 195 200 202 209 214 210 206 211 219 229 236 238 242 246 241 235 238 241 241 240 239 241 243 244 248 251 252 254 256 257 260 260 261 261 261 262 262 260 259 260 258 257 258 259
228 229 228 229 231 230 230 232 231 232 235 239 245 240 228 221 215 216 226 245 236 195 151 121 164 212 184 178 180 181 188 192 188 192 196 197 202 203 199 196 196 199 198 197 206 214 215 213 210 216 225 233 240 245 249 251 249 249 248 245 245 243 243 246 247 252 253 252 254 257 259 260 262 263 263 263 263 263 262 263 265 265 265 264 263
227 227 228 229 229 228 229 229 228 229 232 237 238 225 220 222 217 220 230 233 222 197 219 251 186 174 176 179 181 181 187 195 193 189 187 191 203 199 196 200 201 195 189 187 196 205 208 213 209 208 219 228 236 244 249 253 256 259 259 255 254 253 254 255 254 257 258 255 254 257 259 260 262 264 265 265 264 265 265 266 267 267 268 267 267
227 228 230 231 229 228 229 229 230 229 233 237 231 223 225 224 219 223 232 227 216 208 227 255 226 197 195 194 194 192 194 200 196 182 192 205 202 192 190 190 187 177 177 179 184 186 183 194 201 195 203 220 228 237 246 252 256 258 260 261 265 264 261 258 256 259 259 258 257 259 261 262 262 264 266 267 267 267 267 266 266 266 268 268 268
227 228 231 232 230 231 230 230 231 230 236 239 230 228 227 222 222 227 228 223 218 220 229 241 224 200 195 198 200 195 187 194 199 193 204 211 195 182 176 171 172 171 172 174 173 169 165 166 184 190 190 201 214 229 245 258 264 264 263 267 274 274 269 262 260 265 262 260 262 263 266 265 264 264 267 269 270 269 267 265 266 267 268 269 270
226 227 231 231 230 231 231 231 232 230 236 237 226 222 217 215 223 226 221 217 218 218 219 227 227 196 171 166 180 186 183 187 190 197 207 203 189 178 173 168 172 174 172 174 171 168 169 164 176 193 195 195 202 228 252 268 275 272 266 268 274 281 288 287 283 284 281 277 276 275 274 272 271 272 273 274 274 274 271 269 270 271 272 272 273
226 227 230 231 231 232 231 231 231 230 234 228 215 209 209 212 221 223 217 214 217 215 214 227 233 191 141 124 152 139 153 202 190 201 209 198 190 183 180 176 176 180 181 183 181 176 177 178 189 201 201 196 186 207 231 242 263 285 283 273 269 278 289 297 297 288 285 290 291 290 289 283 280 282 286 286 283 282 281 277 274 273 273 274 274
230 230 231 231 232 232 232 231 229 231 232 221 209 205 208 213 217 222 218 214 217 215 215 224 234 214 144 92 39 93 51 259 202 208 212 203 198 191 187 186 181 184 191 193 191 189 191 198 205 206 204 206 218 203 153 182 274 315 341 14 32 25 25 15 15 19 6 355 328 308 302 299 294 294 300 299 297 296 293 290 286 283 280 278 278
233 233 232 231 231 230 232 231 228 229 228 219 211 210 213 217 222 226 220 215 217 216 213 217 233 227 198 146 73 92 223 229 149 206 209 202 202 198 196 197 193 192 195 198 197 196 197 200 213 220 219 226 229 174 138 138 303 96 81 63 53 48 54 57 57 53 41 32 22 8 350 336 322 312 305 297 298 299 297 299 300 301 299 294 292
234 234 233 231 230 228 230 231 228 228 226 218 214 215 216 220 227 225 216 215 223 222 215 214 220 221 216 211 224 243 214 161 121 203 199 200 201 199 204 207 206 205 203 203 203 201 198 194 207 225 226 242 239 136 120 129 124 115 94 62 41 28 33 40 45 44 33 24 12 6 1 357 351 339 330 314 306 301 299 302 302 303 303 301 301
234 234 233 231 229 227 229 230 227 228 225 218 216 218 220 224 229 225 219 220 226 225 218 212 208 207 212 220 239 242 196 168 165 165 154 210 202 190 201 208 209 214 211 207 205 204 203 196 198 204 208 240 243 122 74 129 136 128 105 62 34 21 16 17 22 21 18 14 4 356 349 347 348 346 346 342 334 326 321 321 320 318 315 311 307
234 234 232 230 228 226 229 229 227 228 224 219 219 221 224 228 228 226 225 226 227 226 222 213 207 203 199 205 215 202 183 182 190 177 148 184 198 174 185 197 204 210 206 204 206 209 210 206 207 212 214 228 220 176 122 132 154 167 160 85 33 27 28 14 9 9 8 6 0 352 341 336 337 338 340 342 342 341 339 339 340 341 340 339 332
232 232 230 229 227 226 228 227 226 227 223 220 222 224 228 230 228 226 227 227 227 227 223 218 214 209 203 204 199 185 176 176 180 174 148 157 192 192 168 177 197 206 202 202 207 213 214 214 219 224 224 229 223 208 197 177 181 197 207 226 341 9 13 2 359 358 356 358 357 352 342 334 333 333 334 335 335 336 336 338 340 342 344 345 344
230 229 228 228 227 226 228 227 226 227 223 221 223 225 230 232 228 227 228 228 227 226 224 223 220 214 210 209 201 190 179 167 172 165 143 149 169 194 178 168 186 203 205 207 209 213 217 218 224 232 234 235 234 229 228 227 223 227 236 252 273 302 329 334 339 345 346 351 356 357 351 344 340 338 335 333 331 329 328 328 330 333 335 337 338
227 225 225 226 226 226 227 227 227 227 224 223 225 225 228 230 228 229 230 228 228 228 225 223 221 216 215 214 210 205 200 206 200 179 158 147 148 162 182 184 194 202 208 213 213 214 219 222 228 237 242 243 245 246 247 245 242 246 249 254 264 275 292 306 311 321 333 342 350 356 354 348 345 344 341 336 332 328 326 325 326 328 330 331 331
224 223 223 223 224 225 226 226 227 227 224 223 225 225 227 228 227 228 229 227 228 229 224 221 218 214 214 216 218 220 219 231 222 197 185 176 170 160 154 176 200 204 209 216 218 220 223 227 234 242 247 250 254 258 260 258 254 252 252 254 260 268 279 293 300 304 311 320 330 336 337 338 339 338 337 333 329 326 323 322 322 323 324 324 325
219 220 222 221 222 224 224 224 225 226 224 223 224 225 226 226 225 227 228 228 230 230 226 222 219 216 216 218 220 221 220 227 224 213 205 186 175 166 149 159 185 187 202 213 217 224 228 232 238 244 250 253 257 262 264 266 263 258 256 255 257 263 274 288 298 303 303 306 312 316 318 321 325 328 328 326 323 320 317 316 315 315 315 317 318
217 219 222 221 222 223 223 224 225 225 223 222 222 224 226 227 227 228 230 230 232 232 230 226 222 219 218 220 221 218 216 218 217 215 207 191 183 176 161 125 153 172 186 204 212 223 231 236 242 247 253 257 261 264 265 267 268 265 261 260 260 263 272 283 292 298 300 301 303 306 308 311 314 318 319 319 317 313 311 310 310 310 310 311 312
219 221 222 221 222 222 222 223 224 224 222 221 221 223 226 228 228 230 232 232 232 232 232 228 223 220 219 223 223 218 219 221 218 216 211 208 204 192 176 148 125 293 322 225 217 226 230 236 240 243 251 261 265 265 265 265 267 268 264 263 264 265 272 281 288 293 295 297 298 300 303 306 309 312 312 313 312 309 306 303 303 305 306 307 309
220 221 223 222 221 221 222 223 223 222 222 223 224 224 226 227 228 230 230 231 231 232 232 229 225 222 222 223 221 218 222 225 221 218 218 222 222 210 197 182 171 209 328 316 263 241 239 233 219 220 235 273 285 277 272 267 265 266 264 263 265 268 275 282 288 291 293 294 295 296 298 301 304 306 307 308 308 307 304 300 298 298 300 304 306
221 222 222 222 221 220 221 222 222 222 223 225 227 227 227 227 228 229 229 229 232 233 231 228 226 225 224 224 220 218 222 225 223 222 223 222 217 217 217 208 194 180 166 277 265 237 229 223 207 206 232 272 315 329 318 298 279 270 266 264 266 271 282 289 292 295 296 296 296 296 297 298 300 302 304 305 305 305 303 300 297 295 295 297 300
221 222 222 221 219 219 220 221 221 221 223 227 229 228 227 228 229 231 232 231 233 232 230 228 227 226 225 224 221 219 223 227 228 229 227 221 216 214 215 218 218 208 189 192 243 230 212 213 217 220 236 260 288 308 316 320 314 296 282 275 273 277 285 290 291 293 295 297 297 297 298 298 300 301 302 304 305 304 302 300 296 293 293 292 292
221 222 221 219 218 218 219 221 222 222 224 227 229 228 228 228 229 231 232 232 232 231 229 229 229 228 227 225 223 221 224 230 233 234 231 225 222 217 214 218 224 229 219 201 209 231 214 212 221 232 268 292 290 288 285 283 289 291 288 284 281 281 283 283 285 288 291 294 296 296 297 298 301 302 304 306 306 305 303 301 298 295 295 295 294
221 221 221 220 218 218 219 221 222 222 224 226 228 228 228 228 229 231 232 230 230 231 231 230 230 230 230 228 226 223 225 232 234 234 232 229 228 223 222 224 221 227 227 210 207 233 228 224 240 266 293 301 292 287 286 284 283 284 285 286 287 288 288 288 290 291 293 295 294 294 294 295 297 299 300 301 302 303 302 301 299 298 298 299 298
220 220 220 220 220 220 220 221 223 223 224 225 227 228 227 227 228 231 231 229 229 231 232 232 231 230 231 229 226 225 227 233 235 234 232 227 225 225 223 224 221 220 222 218 223 242 249 249 260 280 297 300 294 293 295 296 294 290 286 286 288 290 290 291 292 292 292 294 294 294 294 294 294 293 292 292 292 295 297 298 297 297 296 296 295
220 220 220 221 221 221 220 222 223 223 223 225 226 226 225 226 227 230 230 227 228 230 231 233 232 231 230 228 227 227 229 234 235 237 235 228 225 227 226 226 228 227 228 234 238 247 260 267 274 286 293 296 296 300 307 309 306 299 289 283 284 286 287 289 291 291 292 294 296 297 297 296 294 290 287 287 287 289 292 294 294 294 292 291 289
221 221 221 221 221 220 220 222 223 222 223 224 226 226 224 225 227 228 228 227 228 230 230 233 234 231 229 228 228 228 230 234 236 238 239 235 231 232 233 235 236 235 236 242 243 247 259 273 282 288 292 297 299 303 310 311 309 304 296 290 287 286 287 289 291 292 292 293 296 298 299 300 299 295 289 287 286 286 288 291 293 293 291 288 286
220 221 221 221 220 219 220 221 222 221 222 223 225 226 225 226 227 227 228 228 229 230 231 233 234 232 229 230 230 228 229 233 236 237 238 235 233 233 236 240 242 244 243 244 248 252 258 266 275 282 287 293 297 300 304 306 306 303 299 295 291 289 289 291 293 294 294 295 297 299 302 303 303 300 294 289 286 288 291 294 294 294 292 289 286
219 219 219 219 218 219 220 221 221 222 222 223 225 226 226 227 228 228 228 230 231 231 232 233 233 233 232 233 233 229 229 233 235 234 233 232 232 232 236 242 247 250 248 247 253 256 255 257 265 273 280 284 285 289 293 296 298 297 294 292 291 290 291 293 294 294 295 297 299 301 302 303 303 300 295 292 291 292 295 296 296 295 294 292 290
217 218 218 218 218 219 221 222 222 222 223 224 225 226 226 226 227 228 229 231 232 232 232 233 233 234 234 235 235 232 230 233 234 233 232 232 232 233 235 242 249 251 249 249 254 256 254 255 260 267 272 274 275 279 282 284 286 287 288 288 287 286 289 293 294 293 294 297 300 302 302 301 302 301 298 297 296 296 297 298 297 295 292 292 292
216 217 218 219 219 221 222 223 223 223 223 224 226 226 225 225 225 226 228 230 231 231 232 233 233 234 236 236 236 235 234 235 236 236 236 235 234 235 237 243 249 250 249 251 254 254 253 254 257 262 268 270 271 272 274 276 275 276 279 280 280 282 286 288 289 292 295 297 300 302 301 299 300 299 300 300 297 297 300 301 299 298 297 297 296
216 217 218 219 220 221 223 224 224 224 223 224 226 225 224 224 223 224 227 229 230 230 232 234 233 235 237 238 238 238 238 238 238 239 240 238 235 236 238 243 246 246 247 251 253 253 252 252 255 260 266 268 268 270 271 270 267 271 276 275 274 280 286 286 285 290 297 300 303 303 301 301 299 298 300 299 297 300 305 305 305 308 309 307 304
216 218 219 220 220 221 223 224 224 224 224 225 226 224 223 222 221 223 226 228 229 230 231 232 234 236 238 240 241 240 240 240 240 242 242 239 238 238 240 242 244 244 247 251 251 250 250 250 253 257 259 259 262 264 265 266 268 275 280 273 269 278 286 286 287 293 298 301 303 303 304 304 300 300 302 300 300 304 306 307 311 312 311 308 306
216 217 218 219 220 221 222 223 224 224 225 227 227 225 224 222 221 222 225 227 229 230 231 231 232 235 238 240 242 241 240 239 239 242 242 240 241 242 243 244 245 244 246 248 248 249 247 245 249 253 251 254 260 263 267 273 276 276 274 267 267 276 282 284 291 298 300 299 298 299 303 303 298 301 305 303 302 303 301 304 308 307 304 302 301
215 216 216 217 219 221 223 223 224 225 226 228 227 226 225 224 223 223 225 227 228 229 231 231 231 233 235 238 241 239 237 237 237 240 241 242 242 241 242 246 247 246 247 247 247 247 243 241 246 249 247 253 263 268 272 278 278 272 269 266 265 269 272 274 286 297 302 301 287 289 299 304 304 306 309 306 304 302 299 302 304 302 300 298 297
213 214 215 216 218 220 222 224 225 226 228 229 227 226 225 224 224 225 227 227 228 228 230 231 232 232 232 234 237 236 235 235 237 238 240 241 241 240 241 246 248 249 252 253 251 248 244 241 244 247 249 254 264 271 275 279 279 274 271 267 264 264 266 267 273 286 298 301 292 289 298 306 309 308 307 306 306 304 301 301 301 299 298 297 295
212 213 214 216 218 219 221 223 225 228 230 229 227 227 226 225 225 226 228 229 229 229 230 230 230 231 230 231 234 235 235 235 236 238 239 239 239 239 241 245 248 251 255 258 258 255 251 248 247 250 253 258 266 275 281 282 280 276 271 270 269 265 264 267 274 285 296 298 295 294 296 305 311 308 305 309 311 308 302 299 299 299 298 297 296
211 212 213 214 217 219 221 223 226 228 229 229 229 228 227 226 226 227 229 230 230 231 230 229 230 229 228 228 232 235 236 234 233 235 236 237 237 237 239 243 247 251 255 259 258 254 251 250 250 252 257 265 272 281 286 282 278 277 275 275 274 270 269 274 282 290 296 298 298 291 287 303 315 310 306 314 315 308 303 299 299 300 300 300 299
211 212 212 213 216 218 221 222 225 228 229 229 229 229 228 226 225 227 229 230 230 232 232 231 230 229 227 228 232 237 237 235 232 232 233 234 234 234 237 242 247 251 255 257 256 252 249 248 248 253 262 271 275 278 282 282 282 282 280 276 275 274 277 282 287 293 298 301 304 286 273 300 317 311 307 315 313 305 303 302 302 304 304 304 303
212 212 213 214 216 218 220 222 224 227 229 229 229 229 229 226 224 226 228 229 229 231 232 232 230 228 229 230 232 236 238 237 234 232 232 232 231 233 237 242 248 254 255 257 257 254 249 246 247 254 263 268 270 273 278 280 281 280 272 267 268 271 277 283 288 295 300 304 307 290 270 292 314 309 303 308 307 303 304 306 310 313 313 313 313
211 212 214 215 216 217 219 220 223 225 227 228 229 230 229 225 222 223 226 228 229 229 233 234 230 229 233 233 234 236 238 239 238 234 232 231 231 233 236 242 249 253 256 258 254 246 243 247 257 263 265 266 269 275 278 276 274 272 261 260 268 274 279 281 283 291 299 304 309 298 269 282 306 303 298 304 305 304 307 313 319 325 325 323 320
211 213 214 215 216 218 219 220 222 223 226 228 229 230 228 224 221 221 225 228 227 225 231 235 231 231 234 234 235 237 238 239 240 237 232 229 231 234 236 240 246 251 256 254 243 236 238 257 272 282 281 275 273 273 272 268 267 265 262 267 276 279 277 272 270 282 294 303 309 302 263 280 303 304 301 305 304 303 310 317 323 327 327 325 322
213 214 214 215 217 218 220 221 222 223 225 227 229 229 227 223 222 221 224 227 224 221 228 234 233 235 237 236 236 237 238 240 241 239 232 229 232 236 237 238 244 249 252 244 237 240 247 252 264 275 268 261 260 260 264 270 272 270 267 270 274 269 266 267 269 276 284 297 307 307 287 290 304 308 306 306 301 303 313 316 317 320 323 324 321
Height
844 845 845 845 846 846 846 846 846 846 846 846 846 846 846 846 847 846 846 846 845 845 845 845 845 845 845 845 845 845 845 845 845 845 845 846 846 847 847 847 847 847 848 848 848 849 850 850 851 851 852 853 854 855 856 856 857 857 858 859 859 860 860 861 862 862 863 863 864 864 865 865 865 866 866 866 866 867 867 867 868 868 868 869 869
844 844 845 845 845 846 846 846 846 846 846 846 846 846 846 846 846 846 846 846 845 845 844 844 844 844 844 844 844 845 845 845 845 845 845 845 846 846 847 847 847 847 848 848 849 849 850 850 850 851 852 853 854 854 855 856 857 857 857 858 859 859 860 861 861 862 862 863 863 864 864 864 865 865 865 866 866 866 867 867 867 868 868 868 868
843 844 844 844 845 845 845 845 845 845 845 845 846 846 846 846 846 846 846 845 845 845 844 844 844 844 844 843 844 844 844 844 844 845 845 845 846 846 846 847 847 847 847 848 849 849 850 850 851 851 851 852 853 854 855 855 856 857 857 858 858 859 859 860 861 861 862 862 863 863 863 864 864 864 865 865 865 866 866 866 867 867 868 868 868
842 843 843 844 844 844 845 844 845 845 845 845 845 845 845 846 845 845 845 845 845 845 844 844 843 843 843 843 843 843 844 844 844 844 845 845 845 846 846 847 847 847 847 848 849 850 850 850 851 851 851 852 853 853 854 855 856 856 857 857 858 858 859 859 860 860 861 861 862 862 862 863 863 864 864 864 865 865 865 866 866 866 867 867 868
842 842 843 843 843 844 844 844 844 844 845 845 845 845 845 845 845 845 845 845 845 844 844 844 843 843 843 843 843 843 843 843 844 844 844 845 845 846 846 846 846 846 847 848 849 849 850 850 850 851 851 851 852 853 853 853 855 856 856 857 857 858 858 859 859 860 860 860 861 861 862 862 863 863 863 864 864 864 865 865 866 866 866 866 867
841 842 842 842 843 843 843 843 844 844 844 844 844 845 845 845 844 844 844 845 845 844 844 844 843 843 843 844 843 843 843 843 843 843 844 844 845 845 846 846 846 846 847 847 848 849 850 850 850 850 851 851 851 852 852 853 854 855 855 855 856 857 857 858 858 859 859 859 860 860 861 861 862 862 862 863 863 863 864 864 865 865 865 865 866
840 841 841 842 842 842 842 843 843 844 844 844 844 844 844 844 844 844 844 844 844 844 844 844 843 843 843 844 843 843 843 843 843 843 844 844 845 845 846 846 846 846 846 847 848 848 849 850 850 850 850 851 851 851 852 853 853 853 854 854 855 856 856 857 857 858 858 859 859 860 860 861 861 862 862 862 862 862 863 863 864 864 864 864 865
839 840 840 841 841 841 842 843 843 843 843 843 844 844 844 844 844 844 844 844 844 844 844 843 843 843 843 843 843 843 843 843 843 843 844 844 844 845 846 846 846 847 847 847 847 848 848 849 850 850 850 851 851 851 851 852 852 853 853 854 854 855 855 856 857 857 858 858 859 859 860 861 861 861 861 861 861 862 862 863 863 863 863 863 864
838 839 839 840 840 841 841 842 842 842 843 843 843 843 843 844 844 844 844 844 844 844 843 843 843 843 843 843 843 843 843 843 843 843 843 844 844 845 845 846 846 847 847 847 847 847 848 849 849 850 850 850 851 851 851 851 852 852 853 853 853 854 854 855 856 856 857 857 858 858 859 860 860 860 861 861 861 861 862 862 862 862 862 862 863
837 838 838 839 839 840 841 841 842 842 842 842 842 843 843 843 843 843 843 843 843 843 843 843 843 842 842 843 843 843 843 843 843 843 844 844 844 844 845 845 846 846 847 847 847 847 848 848 849 849 849 850 850 851 851 851 852 852 852 852 852 853 853 854 855 855 856 856 857 857 858 858 858 858 859 860 859 859 859 860 861 861 861 862 862
836 837 837 838 838 839 840 840 841 841 841 841 841 842 842 842 842 843 843 843 843 842 842 842 842 842 842 842 842 843 843 843 843 843 844 844 844 844 845 845 846 846 847 847 847 847 848 848 848 849 849 850 850 850 851 851 851 852 852 852 852 852 853 853 854 854 855 855 856 856 856 857 857 857 857 858 858 857 858 859 860 859 860 861 861
835 835 836 836 837 838 838 839 840 840 840 840 841 841 841 841 842 842 842 842 842 842 842 842 842 842 842 842 842 842 843 843 843 843 843 844 844 844 845 845 846 846 847 847 847 847 848 848 848 849 849 849 850 850 851 851 851 851 851 852 852 852 852 852 853 853 854 854 855 855 855 856 856 856 856 856 856 856 857 858 857 857 858 859 859
833 834 834 835 836 837 837 838 838 839 839 839 840 840 840 841 841 841 841 841 841 841 841 841 841 841 841 841 841 842 842 842 843 842 843 843 844 844 845 845 846 846 847 847 848 848 848 848 849 849 849 850 850 850 850 851 851 851 851 851 852 852 852 852 852 853 853 853 853 854 854 855 855 855 854 854 855 855 856 856 855 856 857 857 858
831 832 833 833 834 835 836 837 837 837 838 838 839 839 839 840 840 840 840 841 841 841 841 841 841 841 840 841 842 842 842 842 843 843 843 843 844 844 845 845 846 846 847 848 848 848 849 849 849 849 849 850 850 850 850 850 851 851 851 851 851 852 852 852 852 852 852 853 853 853 853 854 854 854 854 853 854 854 854 855 854 855 856 856 857
830 830 831 832 833 834 834 835 836 836 837 837 837 838 838 839 839 840 840 840 840 840 840 840 840 840 840 842 843 843 843 842 842 843 843 844 844 845 845 846 846 847 847 848 848 849 849 849 849 849 849 850 850 850 851 851 851 851 851 852 852 852 852 852 852 852 852 852 852 852 853 853 853 853 853 853 853 853 854 854 854 854 855 855 856
828 829 829 830 831 832 833 833 834 835 835 836 836 837 837 838 838 839 839 840 840 840 840 840 840 840 841 843 843 844 846 844 842 843 844 844 845 845 846 846 846 847 848 848 849 849 850 849 849 849 849 850 850 851 851 851 851 852 852 852 852 852 852 852 852 852 852 852 852 852 852 852 852 852 852 853 853 853 853 853 853 853 853 854 854
826 827 828 829 830 830 831 832 833 833 834 834 835 836 836 837 837 838 838 839 839 839 839 839 839 839 840 841 843 846 846 844 843 843 843 844 845 845 846 847 847 847 848 848 849 850 850 850 850 850 850 850 851 851 851 852 852 852 852 852 852 852 852 852 852 852 852 852 852 852 852 852 852 852 852 852 852 852 853 853 853 852 852 853 853
824 825 826 827 828 829 830 830 831 832 832 833 834 835 835 836 836 837 837 838 838 838 838 838 839 838 838 839 841 842 842 842 844 845 844 843 844 846 846 847 847 848 848 849 849 850 850 850 850 850 850 851 851 852 852 852 852 853 853 853 853 853 853 853 853 853 853 852 852 852 852 852 852 852 852 852 852 852 852 852 852 852 852 852 852
822 823 824 825 827 828 828 829 829 830 831 832 832 833 834 835 835 836 837 837 838 838 838 838 838 838 838 838 838 839 839 840 843 845 845 845 845 845 847 847 848 848 848 849 849 850 850 850 851 851 851 851 852 852 852 852 853 853 853 854 854 854 854 853 853 853 853 853 853 852 852 852 852 852 852 852 852 851 851 851 851 851 852 852 852
820 821 822 824 825 826 826 827 828 829 829 830 831 832 833 834 834 835 836 836 837 837 837 838 838 838 838 839 839 839 839 839 840 841 844 846 846 846 847 847 848 848 848 849 849 849 850 850 851 851 851 852 852 852 852 853 853 854 854 854 854 854 854 854 854 854 853 853 853 852 852 852 852 851 851 851 851 851 851 851 851 851 851 851 851
818 819 821 822 823 824 825 825 826 827 828 828 829 830 831 832 833 834 835 835 836 836 837 837 837 837 837 838 838 838 838 838 839 839 841 844 846 846 846 847 847 848 848 849 849 849 850 850 850 851 851 852 852 852 853 853 853 854 854 854 854 854 854 854 854 854 854 853 852 852 852 852 852 851 851 851 851 851 851 851 851 851 851 851 850
816 817 819 820 821 822 823 823 824 825 826 827 828 829 829 831 832 833 833 834 835 835 835 835 836 836 837 837 838 838 838 838 838 839 839 842 844 844 845 846 846 847 847 848 848 849 849 850 850 851 851 851 852 852 852 853 853 853 854 854 854 854 854 854 854 854 854 853 853 852 852 851 851 851 851 850 850 850 850 850 850 850 850 850 850
814 815 817 818 819 820 821 822 822 823 824 825 826 827 828 829 830 831 832 833 833 833 834 834 835 836 837 837 838 838 838 838 838 838 839 840 842 843 843 844 845 845 846 847 848 848 849 849 850 850 851 851 851 851 852 852 853 853 853 854 854 854 854 854 854 854 854 853 853 852 852 851 851 851 850 850 850 849 849 849 849 849 849 849 849
812 813 814 816 817 818 819 820 820 821 822 824 825 826 827 828 829 830 831 831 832 832 833 834 835 836 836 837 837 838 838 838 838 838 839 839 840 842 843 844 844 845 846 846 847 848 848 849 849 850 850 850 850 851 851 851 852 852 853 853 853 854 854 854 853 853 853 853 853 852 852 851 851 850 850 849 849 849 849 849 848 848 848 848 848
808 809 811 813 814 815 816 817 818 819 821 822 824 825 826 827 828 829 829 830 830 831 832 833 834 835 836 836 836 837 837 838 838 839 839 839 840 841 843 843 844 844 845 846 846 847 848 848 849 849 849 849 850 850 850 850 851 851 852 852 853 853 853 853 853 853 853 852 852 852 851 851 851 850 850 849 849 848 848 848 848 848 847 847 847
804 806 808 810 811 813 814 815 816 818 819 821 822 823 825 825 826 827 828 828 829 830 831 832 833 834 835 835 835 836 836 837 838 838 839 839 840 841 842 844 844 844 845 846 846 847 847 847 848 848 849 849 849 849 849 849 849 850 851 851 851 852 852 852 852 852 852 852 851 851 851 850 850 849 849 849 848 848 847 847 847 846 846 846 846
802 804 806 808 809 811 812 813 815 816 818 819 821 822 823 824 825 826 826 827 828 829 830 831 832 833 833 834 834 835 836 836 837 838 838 839 840 840 842 844 845 846 845 846 846 846 846 847 847 847 848 848 848 848 848 848 848 849 849 850 850 851 851 851 851 851 851 851 851 850 850 850 849 849 848 848 847 847 846 846 845 845 844 844 844
800 802 804 806 807 809 810 811 813 815 816 818 819 821 822 823 824 824 825 826 827 828 829 830 831 832 833 834 834 834 835 836 837 837 838 839 839 840 841 842 845 847 847 846 846 846 846 846 846 847 847 847 847 846 846 847 847 848 848 849 849 849 850 850 850 850 850 850 849 849 849 849 848 848 847 847 846 845 845 844 844 843 843 842 842
798 800 801 803 805 807 808 809 811 813 815 816 817 819 820 821 822 823 823 825 826 827 828 829 830 831 832 833 833 834 835 836 836 837 838 838 839 840 840 841 842 845 847 847 846 844 844 845 845 846 846 846 845 845 845 845 846 846 847 847 848 848 848 848 848 848 848 848 848 848 847 847 847 846 846 845 845 844 844 843 842 842 841 841 840
796 797 799 801 803 805 806 807 809 811 813 814 815 817 818 820 820 821 822 823 825 825 827 828 829 830 831 832 833 833 834 835 836 837 838 838 839 839 840 840 841 842 844 846 845 843 843 844 844 844 845 845 845 844 845 845 845 845 846 846 847 847 847 847 847 847 847 847 846 846 846 845 845 845 845 844 843 843 842 842 841 841 840 839 839
794 795 797 798 800 802 803 805 807 809 811 812 813 815 816 818 818 819 821 822 823 824 825 827 828 829 830 831 832 832 834 835 835 837 837 838 838 838 839 840 840 841 841 843 844 842 842 843 843 844 844 844 844 844 844 844 845 845 845 845 845 846 846 846 846 846 845 845 845 844 844 844 843 843 843 842 842 841 841 840 839 839 838 837 837
791 792 794 795 797 799 801 803 804 806 808 810 811 813 814 815 816 817 819 820 822 822 824 825 826 827 828 829 830 831 832 833 834 835 836 837 838 838 838 838 839 840 840 841 842 841 841 842 842 843 843 843 843 843 843 844 844 844 844 844 844 844 844 844 844 843 843 843 843 842 842 842 841 841 840 840 840 839 839 838 838 837 836 835 835
788 790 791 793 794 796 798 800 802 803 805 807 808 810 812 813 814 816 817 819 820 820 821 822 823 824 825 826 828 829 830 831 832 833 834 835 836 837 838 838 838 839 839 840 840 840 840 841 841 841 842 842 842 842 842 842 843 843 843 843 843 842 842 842 842 841 841 840 840 840 840 839 839 838 838 838 838 837 837 836 835 835 834 833 833
785 787 789 790 792 794 796 797 799 801 802 804 806 808 809 811 812 814 815 816 817 818 819 819 820 821 823 824 825 827 828 829 830 831 832 833 835 836 837 837 838 838 839 839 839 839 839 839 840 840 841 841 841 841 841 841 841 841 841 841 841 841 841 840 840 839 839 838 838 837 837 837 836 835 835 835 835 834 834 833 833 832 832 831 830
783 784 786 788 790 791 793 794 796 798 800 801 803 805 806 808 809 811 812 813 814 815 816 816 818 819 821 822 823 824 826 827 828 830 831 832 833 835 836 837 837 838 838 839 839 839 839 838 839 839 839 840 839 839 840 840 840 839 839 839 839 839 839 838 838 837 837 836 836 835 835 834 833 833 832 832 832 831 831 830 830 829 829 829 828
779 781 784 786 787 789 790 791 793 795 796 798 800 802 803 805 807 808 810 810 811 812 813 814 816 818 819 819 820 822 824 825 826 828 830 831 832 833 835 836 836 837 837 838 838 838 838 838 838 838 838 838 838 838 838 838 838 838 838 838 837 837 837 836 836 835 835 834 834 833 832 831 831 830 830 829 829 828 828 828 828 827 826 826 825
776 779 781 783 785 786 786 787 789 791 793 795 797 798 800 802 804 806 807 807 808 809 811 812 814 815 816 817 818 820 821 822 824 826 828 829 830 832 833 834 835 835 836 837 837 837 837 837 837 837 837 837 837 837 837 837 837 837 837 836 836 835 834 834 833 833 833 832 831 831 830 829 829 828 828 827 826 826 826 825 825 825 824 824 823
773 776 778 780 781 782 783 784 786 788 790 792 793 795 797 800 802 803 804 804 805 807 808 809 811 812 813 815 817 818 819 820 822 824 826 828 829 829 830 831 833 834 834 835 835 836 836 835 835 835 836 836 836 836 836 837 836 836 836 835 834 834 833 832 831 831 831 830 829 828 828 827 827 826 826 825 824 824 824 823 823 822 821 821 821
770 772 774 776 777 779 780 782 784 785 787 789 790 792 795 797 799 800 801 801 802 804 805 806 808 810 811 813 814 816 817 818 819 822 824 826 826 827 828 830 831 831 832 833 833 834 834 833 834 834 834 834 834 834 835 835 835 835 834 833 832 832 832 831 829 829 829 829 828 827 826 825 825 825 824 823 822 821 821 820 820 819 818 818 818
765 767 769 772 774 776 777 779 780 783 784 785 786 788 791 793 795 797 797 798 799 801 802 804 805 807 808 810 811 813 815 816 818 820 821 823 824 825 826 827 828 829 829 830 831 831 831 831 831 831 832 832 832 833 833 834 834 833 833 832 831 830 830 829 828 828 828 827 827 826 824 824 823 823 822 821 820 819 818 817 817 816 816 815 815
761 763 766 768 770 772 774 775 777 779 780 780 781 784 787 789 792 793 794 796 797 799 800 801 803 804 806 807 808 810 812 814 816 818 819 820 821 822 824 825 826 827 827 828 828 828 829 829 829 829 830 830 830 831 831 831 831 831 831 831 829 828 828 827 826 826 826 826 825 824 823 822 822 821 820 819 818 817 816 815 814 814 813 813 812
757 759 762 765 766 768 770 771 773 775 775 775 777 780 783 786 788 791 792 793 795 796 797 798 799 801 802 804 805 807 810 812 814 816 816 817 818 819 821 822 823 824 824 825 825 826 826 826 826 827 828 828 828 829 829 829 829 829 829 829 828 827 827 826 824 824 824 825 824 823 822 821 820 819 818 817 816 815 814 813 812 812 811 811 810
753 755 757 760 761 763 765 767 768 769 769 770 773 776 780 783 786 787 788 790 791 792 793 794 795 796 798 800 802 804 807 808 810 812 813 814 815 816 818 819 820 821 821 822 823 823 824 824 824 824 825 825 825 826 826 826 826 827 827 827 826 826 826 825 823 822 822 822 822 821 820 819 818 817 816 815 814 813 812 811 811 810 809 808 808
747 750 752 754 756 759 761 762 763 764 764 766 770 773 776 779 782 784 784 785 786 787 788 789 790 792 794 796 798 801 803 804 806 808 810 811 812 813 815 816 817 817 818 819 820 820 821 821 821 821 822 822 822 823 824 824 824 824 824 824 824 824 824 824 822 820 820 820 820 819 817 816 815 814 813 812 812 811 810 809 808 808 807 806 805
743 745 747 749 751 753 755 757 758 758 760 763 766 769 772 774 777 780 780 781 782 782 783 784 785 787 789 792 794 796 798 801 803 804 806 808 809 810 812 813 814 814 816 816 817 817 818 818 818 818 819 820 820 820 821 821 821 822 822 822 821 821 821 821 820 819 819 818 818 817 815 813 812 811 810 809 809 808 807 807 806 805 804 803 802
738 739 741 743 746 748 750 751 753 754 757 760 762 764 767 769 773 776 777 777 777 777 778 780 781 783 785 789 791 791 794 796 799 801 803 805 807 808 810 810 811 812 813 814 814 814 815 815 815 815 816 817 817 817 818 819 819 820 820 819 819 819 819 819 818 817 817 816 815 814 812 810 809 808 807 806 806 805 805 804 803 802 801 800 799
731 733 735 738 740 742 744 746 749 750 752 755 757 760 762 765 769 772 773 773 774 774 775 776 777 779 782 786 787 788 789 792 795 797 800 802 804 806 807 807 808 809 811 811 811 812 812 813 813 813 814 814 814 815 816 816 817 817 817 817 817 817 817 816 816 815 814 813 813 812 809 807 807 805 804 804 804 802 802 801 800 799 798 796 795
727 729 731 732 734 736 739 742 744 745 748 750 753 755 757 760 765 768 769 770 770 770 771 771 773 777 781 784 785 786 787 789 792 795 797 800 802 803 803 804 806 807 807 808 809 809 810 811 811 812 812 812 813 813 814 814 814 814 815 815 815 815 815 814 814 813 812 811 810 810 808 805 805 803 802 802 801 799 798 797 797 795 794 793 792
722 724 725 726 729 731 734 737 738 740 743 746 748 750 752 757 761 764 766 765 765 767 769 770 773 779 782 782 782 784 785 787 790 792 795 798 799 800 800 801 803 804 804 806 807 808 809 810 811 811 810 810 811 812 812 812 812 812 812 812 813 813 813 813 812 811 810 809 808 808 806 804 803 802 800 799 799 796 794 794 793 793 792 791 790
716 718 720 722 725 727 729 731 733 735 738 741 743 745 749 753 757 760 761 761 762 766 770 770 773 777 778 778 779 781 782 785 788 791 793 796 797 797 798 799 800 800 801 803 804 805 808 810 810 810 810 810 810 810 810 810 810 811 811 810 811 811 811 811 810 810 809 808 807 806 804 802 801 801 799 796 795 793 792 791 790 790 789 788 787
712 714 716 719 721 722 724 726 729 731 734 736 738 741 745 750 754 756 758 758 760 764 767 769 771 773 774 775 776 778 780 783 786 788 791 793 794 795 796 796 797 798 799 801 802 803 805 806 806 807 808 809 808 808 809 809 809 809 808 808 809 809 809 808 808 809 808 807 805 804 802 800 799 799 798 795 792 789 789 789 788 787 786 785 784